| time (UTC) | temp F | wind direction | speed MPH | gust MPH | rain 1hr in | rain 24hr in | rain mn in | humidity % | barometer mb |
| 20260904094547 | 60 | 115 | 0.0 | 0.0 | 0.00 | 0.55 | 0.01 | 87 | 1007.0 |
| 20260904093052 | 60 | 115 | 0.0 | 0.0 | 0.00 | 0.55 | 0.01 | 87 | 1007.0 |
| 20260904091545 | 60 | 115 | 0.0 | 0.0 | 0.00 | 0.55 | 0.01 | 87 | 1007.0 |
| 20260904090043 | 60 | 115 | 0.0 | 0.0 | 0.00 | 0.55 | 0.01 | 87 | 1007.0 |
| 20260904084543 | 60 | 115 | 0.0 | 0.0 | 0.00 | 0.55 | 0.01 | 87 | 1007.1 |
| 20260904083043 | 60 | 115 | 0.0 | 0.0 | 0.01 | 0.55 | 0.01 | 87 | 1007.2 |
| 20260904081541 | 60 | 115 | 0.0 | 0.0 | 0.01 | 0.55 | 0.01 | 87 | 1007.2 |
| 20260904080040 | 60 | 115 | 0.0 | 0.0 | 0.01 | 0.55 | 0.01 | 87 | 1007.2 |
| 20260904074544 | 61 | 115 | 0.0 | 0.0 | 0.01 | 0.55 | 0.01 | 87 | 1007.3 |
| 20260904073038 | 61 | 115 | 0.0 | 0.0 | 0.00 | 0.54 | 0.00 | 87 | 1007.3 |
| 20260904071537 | 61 | 115 | 0.0 | 0.0 | 0.00 | 0.54 | 0.00 | 87 | 1007.4 |
| 20260904070035 | 61 | 115 | 0.0 | 0.0 | 0.00 | 0.54 | 0.00 | 87 | 1007.6 |
| 20260904064534 | 61 | 115 | 0.0 | 1.0 | 0.00 | 0.54 | 0.00 | 87 | 1007.7 |
| 20260904063038 | 61 | 115 | 0.0 | 0.0 | 0.00 | 0.54 | 0.00 | 87 | 1007.9 |
| 20260904061531 | 61 | 109 | 0.0 | 0.0 | 0.00 | 0.54 | 0.00 | 87 | 1008.0 |
| 20260904060029 | 61 | 109 | 0.0 | 0.0 | 0.00 | 0.54 | 0.00 | 87 | 1008.1 |
| 20260904054528 | 61 | 109 | 0.0 | 0.0 | 0.00 | 0.54 | 0.00 | 87 | 1008.3 |
| 20260904053028 | 61 | 109 | 0.0 | 0.0 | 0.00 | 0.54 | 0.00 | 87 | 1008.3 |
| 20260904051550 | 61 | 109 | 0.0 | 0.0 | 0.00 | 0.54 | 0.00 | 87 | 1008.5 |
| 20260904050024 | 61 | 109 | 0.0 | 0.0 | 0.00 | 0.54 | 0.00 | 87 | 1008.5 |
| 20260904044525 | 61 | 109 | 0.0 | 0.0 | 0.00 | 0.54 | 0.00 | 87 | 1008.6 |
| 20260904043021 | 61 | 109 | 0.0 | 0.0 | 0.01 | 0.54 | 0.00 | 87 | 1008.9 |
| 20260904041521 | 61 | 109 | 0.0 | 0.0 | 0.02 | 0.54 | 0.00 | 87 | 1009.1 |
| 20260904040022 | 61 | 109 | 0.0 | 0.0 | 0.02 | 0.54 | 0.54 | 87 | 1009.1 |
| 20260904034516 | 61 | 109 | 0.0 | 0.0 | 0.02 | 0.54 | 0.54 | 87 | 1009.2 |
| 20260904033015 | 61 | 109 | 0.0 | 0.0 | 0.02 | 0.53 | 0.53 | 87 | 1009.3 |
| 20260904031513 | 61 | 109 | 0.0 | 0.0 | 0.02 | 0.52 | 0.52 | 87 | 1009.3 |
| 20260904030012 | 61 | 109 | 0.0 | 0.0 | 0.03 | 0.52 | 0.52 | 87 | 1009.4 |
| 20260904024512 | 61 | 109 | 0.0 | 0.0 | 0.03 | 0.52 | 0.52 | 87 | 1009.5 |
| 20260904023010 | 61 | 109 | 0.0 | 0.0 | 0.03 | 0.51 | 0.51 | 87 | 1009.6 |
| 20260904021508 | 61 | 109 | 0.0 | 0.0 | 0.03 | 0.50 | 0.50 | 87 | 1009.8 |
| 20260904020008 | 61 | 109 | 0.0 | 0.0 | 0.04 | 0.49 | 0.49 | 87 | 1010.0 |
| 20260904014507 | 61 | 109 | 0.0 | 0.0 | 0.06 | 0.49 | 0.49 | 86 | 1010.0 |
| 20260904013007 | 61 | 109 | 0.0 | 0.0 | 0.06 | 0.48 | 0.48 | 86 | 1010.1 |
| 20260904011506 | 61 | 109 | 0.0 | 0.0 | 0.06 | 0.47 | 0.47 | 86 | 1010.1 |
| 20260904010011 | 61 | 109 | 0.0 | 0.0 | 0.05 | 0.45 | 0.45 | 86 | 1010.1 |
| 20260904004504 | 61 | 109 | 0.0 | 0.0 | 0.04 | 0.43 | 0.43 | 87 | 1010.1 |
| 20260904003003 | 61 | 109 | 0.0 | 0.0 | 0.05 | 0.42 | 0.42 | 86 | 1010.3 |
| 20260904001503 | 61 | 109 | 0.0 | 0.0 | 0.06 | 0.41 | 0.41 | 86 | 1010.3 |
| 20260904000003 | 61 | 109 | 0.0 | 0.0 | 0.07 | 0.40 | 0.40 | 86 | 1010.2 |
| 20260903234502 | 61 | 109 | 0.0 | 1.0 | 0.07 | 0.39 | 0.39 | 86 | 1010.1 |
| 20260903233001 | 61 | 142 | 0.0 | 0.0 | 0.06 | 0.37 | 0.37 | 86 | 1010.1 |
| 20260903231502 | 61 | 78 | 0.0 | 0.0 | 0.05 | 0.35 | 0.35 | 86 | 1010.1 |
| 20260903230100 | 61 | 92 | 0.0 | 0.0 | 0.03 | 0.33 | 0.33 | 86 | 1010.1 |
| 20260903224559 | 61 | 111 | 0.0 | 1.0 | 0.02 | 0.32 | 0.32 | 86 | 1010.2 |
| 20260903223057 | 61 | 141 | 0.0 | 0.0 | 0.01 | 0.31 | 0.31 | 86 | 1010.5 |
| 20260903221557 | 62 | 105 | 0.0 | 2.0 | 0.00 | 0.30 | 0.30 | 86 | 1010.5 |
| 20260903220056 | 62 | 166 | 0.0 | 1.0 | 0.00 | 0.30 | 0.30 | 86 | 1010.5 |
| 20260903214555 | 62 | 71 | 0.0 | 1.0 | 0.00 | 0.30 | 0.30 | 86 | 1010.6 |
| 20260903213058 | 62 | 105 | 0.0 | 1.0 | 0.00 | 0.30 | 0.30 | 86 | 1010.6 |
| 20260903211556 | 62 | 99 | 0.0 | 3.0 | 0.00 | 0.30 | 0.30 | 86 | 1010.6 |
| 20260903210107 | 62 | 143 | 0.0 | 0.0 | 0.01 | 0.30 | 0.30 | 86 | 1010.7 |
| 20260903204610 | 62 | 65 | 0.0 | 0.0 | 0.01 | 0.30 | 0.30 | 86 | 1010.8 |
| 20260903203051 | 62 | 180 | 0.0 | 1.0 | 0.01 | 0.30 | 0.30 | 86 | 1010.9 |
| 20260903201548 | 62 | 110 | 0.0 | 1.0 | 0.01 | 0.30 | 0.30 | 86 | 1010.9 |
| 20260903200053 | 62 | 139 | 0.0 | 0.0 | 0.00 | 0.28 | 0.28 | 86 | 1011.0 |
| 20260903194546 | 62 | 96 | 0.0 | 0.0 | 0.00 | 0.28 | 0.28 | 86 | 1011.2 |
| 20260903193044 | 62 | 138 | 0.0 | 4.0 | 0.00 | 0.28 | 0.28 | 85 | 1011.3 |
| 20260903191543 | 62 | 89 | 0.0 | 1.0 | 0.01 | 0.28 | 0.28 | 86 | 1011.4 |
| 20260903190042 | 62 | 182 | 0.0 | 3.0 | 0.01 | 0.28 | 0.28 | 85 | 1011.4 |
| 20260903184544 | 62 | 181 | 0.0 | 1.0 | 0.01 | 0.28 | 0.28 | 85 | 1011.5 |
| 20260903183039 | 62 | 90 | 0.0 | 4.0 | 0.01 | 0.28 | 0.28 | 86 | 1011.6 |
| 20260903181538 | 62 | 186 | 0.0 | 8.0 | 0.02 | 0.28 | 0.28 | 85 | 1011.9 |
| 20260903180038 | 62 | 176 | 0.0 | 3.0 | 0.03 | 0.28 | 0.28 | 86 | 1012.0 |
| 20260903174535 | 62 | 182 | 0.0 | 2.0 | 0.03 | 0.28 | 0.28 | 85 | 1012.2 |
| 20260903173033 | 62 | 167 | 0.0 | 1.0 | 0.04 | 0.28 | 0.28 | 85 | 1012.2 |
| 20260903171532 | 62 | 155 | 0.0 | 4.0 | 0.02 | 0.26 | 0.26 | 85 | 1012.3 |
| 20260903170031 | 62 | 121 | 0.0 | 2.0 | 0.02 | 0.25 | 0.25 | 86 | 1012.5 |
| 20260903164528 | 61 | 192 | 0.0 | 3.0 | 0.03 | 0.25 | 0.25 | 86 | 1012.6 |
| 20260903163026 | 61 | 193 | 0.0 | 1.0 | 0.03 | 0.24 | 0.24 | 86 | 1012.8 |
| 20260903161525 | 61 | 88 | 0.0 | 5.0 | 0.03 | 0.24 | 0.24 | 85 | 1012.9 |
| 20260903160050 | 61 | 101 | 0.0 | 2.0 | 0.03 | 0.23 | 0.23 | 86 | 1013.0 |
| 20260903154522 | 60 | 163 | 0.0 | 4.0 | 0.02 | 0.22 | 0.22 | 86 | 1013.2 |
| 20260903153022 | 60 | 177 | 0.0 | 5.0 | 0.02 | 0.21 | 0.21 | 86 | 1013.3 |
| 20260903151523 | 61 | 178 | 0.0 | 5.0 | 0.02 | 0.21 | 0.21 | 86 | 1013.5 |
| 20260903150025 | 60 | 37 | 0.0 | 2.0 | 0.03 | 0.20 | 0.20 | 86 | 1013.7 |
| 20260903144516 | 60 | 103 | 0.0 | 5.0 | 0.03 | 0.20 | 0.20 | 86 | 1013.9 |
| 20260903143022 | 60 | 46 | 0.0 | 1.0 | 0.03 | 0.19 | 0.19 | 86 | 1014.0 |
| 20260903141514 | 59 | 178 | 0.0 | 3.0 | 0.04 | 0.19 | 0.19 | 86 | 1014.2 |
| 20260903140008 | 59 | 107 | 0.0 | 2.0 | 0.03 | 0.17 | 0.17 | 86 | 1014.3 |
| 20260903134506 | 59 | 155 | 0.0 | 5.0 | 0.04 | 0.17 | 0.17 | 86 | 1014.5 |
| 20260903133006 | 58 | 173 | 0.0 | 0.0 | 0.05 | 0.16 | 0.16 | 86 | 1014.5 |
| 20260903131505 | 58 | 176 | 0.0 | 1.0 | 0.06 | 0.15 | 0.15 | 86 | 1014.4 |
| 20260903130004 | 58 | 144 | 0.0 | 3.0 | 0.07 | 0.14 | 0.14 | 85 | 1014.6 |
| 20260903124502 | 58 | 129 | 0.0 | 1.0 | 0.06 | 0.13 | 0.13 | 85 | 1014.7 |
| 20260903123100 | 58 | 211 | 0.0 | 8.0 | 0.05 | 0.11 | 0.11 | 85 | 1014.7 |
| 20260903121559 | 57 | 213 | 0.0 | 1.0 | 0.03 | 0.09 | 0.09 | 85 | 1014.8 |
| 20260903120106 | 57 | 144 | 0.0 | 5.0 | 0.03 | 0.08 | 0.08 | 85 | 1014.9 |
| 20260903114556 | 57 | 279 | 0.0 | 3.0 | 0.03 | 0.07 | 0.07 | 85 | 1015.1 |
| 20260903113054 | 56 | 144 | 0.0 | 5.0 | 0.04 | 0.06 | 0.06 | 84 | 1015.2 |
| 20260903111553 | 56 | 154 | 0.0 | 0.0 | 0.06 | 0.06 | 0.06 | 84 | 1015.4 |
| 20260903110053 | 56 | 135 | 0.0 | 5.0 | 0.05 | 0.05 | 0.05 | 84 | 1015.3 |
| 20260903104552 | 56 | 83 | 0.0 | 0.0 | 0.04 | 0.04 | 0.04 | 83 | 1015.4 |
| 20260903103051 | 56 | 76 | 0.0 | 2.0 | 0.01 | 0.01 | 0.01 | 82 | 1015.4 |
| 20260903101554 | 57 | 59 | 0.0 | 3.0 | 0.00 | 0.00 | 0.00 | 81 | 1015.3 |
| 20260903100050 | 56 | 28 | 0.0 | 7.0 | 0.00 | 0.00 | 0.00 | 81 | 1015.3 |